Regional Weather Roundup
Issued by NWS Glasgow, MT

Current Version | Previous Version | Text Only | Print | Product List | Glossary On
Versions: 1 2 3 4 5 6 7 8 9 10 11 12 13 14 15 16 17 18 19 20 21 22 23 24 25 26 27
000
ASUS45 KGGW 290715
RWRGGW
HOURLY REGIONAL WEATHER ROUNDUP FOR NORTHEAST MONTANA
NATIONAL WEATHER SERVICE GLASGOW MONTANA
100 AM MDT MON AUG 29 2016

NOTE: "FAIR" INDICATES FEW OR NO CLOUDS BELOW 12,000 FEET WITH NO
SIGNIFICANT WEATHER AND/OR OBSTRUCTIONS TO VISISBILITY.

NORTHEAST MONTANA


CITY           SKY/WX    TMP DP  RH WIND       PRES   REMARKS
GLASGOW        CLEAR     59  44  57 NE8       30.20R
PLENTYWOOD       N/A     55  44  66 N10         N/A
WOLF POINT     CLEAR     63  47  55 NE8       30.19R
JORDAN           N/A     64  49  57 N12       30.19R
WINNETT          N/A     65  47  52 W8          N/A
SIDNEY         MOCLDY    64  50  60 N9        30.16R
GLENDIVE       CLOUDY    69  49  48 NE13      30.17R
MALTA            N/A     56  46  69 E3          N/A
SCOBEY           N/A     48  40  73 CALM      30.20R

FORT PECK REPORTS


CITY           SKY/WX    TMP DP  RH WIND       PRES   REMARKS
FORT PECK        N/A     62  47  57 N12G20      N/A
THE PINES        N/A     61  46  57 N6          N/A

SOUTHEAST MONTANA


CITY           SKY/WX    TMP DP  RH WIND       PRES   REMARKS
BILLINGS       CLOUDY    70  45  40 N10       30.20R
MILES CITY     CLOUDY    67  47  48 NE7       30.15R
BAKER          CLOUDY    68  48  48 E10       30.16R
LIVINGSTON     CLEAR     65  42  43 E9        30.27R

CENTRAL MONTANA


CITY           SKY/WX    TMP DP  RH WIND       PRES   REMARKS
HAVRE          CLOUDY    53  45  74 E8        30.22S
LEWISTOWN      CLEAR     60  45  57 SE8       30.26R
GREAT FALLS    CLOUDY    57  44  62 E3        30.24R
CUT BANK       MOCLDY    53  41  63 E3        30.25R
HELENA         CLOUDY    62  42  47 W7        30.23F
BUTTE          CLOUDY    53  30  41 SE5       30.31S
BOZEMAN        CLEAR     56  42  59 CALM      30.26R

WESTERN MONTANA


CITY           SKY/WX    TMP DP  RH WIND       PRES   REMARKS
MISSOULA       PTCLDY    60  37  42 CALM      30.19R
KALISPELL      NOT AVBL

NORTH DAKOTA


CITY           SKY/WX    TMP DP  RH WIND       PRES   REMARKS
WILLISTON      CLOUDY    63  48  58 N10       30.17R
DICKINSON      CLOUDY    65  48  54 N9        30.12R
MINOT          CLEAR     63  54  72 NW12      30.10R
BISMARCK       PTCLDY    72  53  51 N10       30.06R

SOUTHERN SASKATCHEWAN


CITY           SKY/WX    TMP DP  RH WIND       PRES   REMARKS
REGINA         CLEAR     45  43  93 NW10      30.21R
ESTEVAN        CLEAR     52  48  87 NW10      30.17R
SWIFT CURRENT  CLEAR     45  43  93 VRB2      30.24R





USA.gov is the U.S. government's official web portal to all federal, state and local government web resources and services.